Location: Moscow
(55.7500°N, 37.5830°E)
Time: 20:26:11
(UTC+03:00)

Vanguard 2 Rocket - All Passes

Search period start: 06 December 2021 00:00
Search period end: 16 December 2021 00:00
Orbit: 555 x 3324 km, 32.9° (Epoch: 06 December)

Date Brightness Start Highest point End Pass type
(mag) Time Alt. Az. Time Alt. Az. Time Alt. Az.
06 Dec - 18:55:05 10° S 18:57:29 12° SSE 19:00:13 10° SE visible
06 Dec - 21:04:44 10° SW 21:09:26 15° S 21:15:27 10° SSE visible
06 Dec - 23:21:20 10° SSW 23:22:13 10° SSW 23:23:08 10° SSW night (unlit)
07 Dec - 20:06:15 10° SSW 20:09:51 14° S 20:14:17 10° SSE visible
07 Dec - 22:19:32 10° SSW 22:22:18 11° SSW 22:25:25 10° S visible
08 Dec - 19:08:38 10° S 19:10:28 11° SSE 19:12:31 10° SSE visible
08 Dec - 21:19:52 10° SSW 21:22:32 11° S 21:25:35 10° S visible
09 Dec - 20:21:11 10° SSW 20:22:57 11° S 20:24:55 10° S visible
